Location: Peterborough
(44.3091°N, 78.3197°W)
Time: 02:51:16
(UTC-04:00)

Tiros 1 - Pass Details

Date: 07 April 2023
Orbit: 627 x 661 km, 48.4° (Epoch: 09 June)

Event Time Altitude Azimuth Distance (km) Brightness Sun altitude
Rises 04:44:49 0° 281° (WNW) 2,977 - -20.6°
Reaches altitude 10° 04:47:12 10° 287° (WNW) 2,069 - -20.2°
Exits shadow 04:49:16 24° 297° (WNW) 1,345 8.5 -19.9°
Maximum altitude 04:51:53 52° 4° (N) 820 7.8 -19.5°
Drops below altitude 10° 04:56:34 10° 81° (E) 2,077 10.8 -18.8°
Sets 04:58:59 0° 86° (E) 2,989 11.7 -18.4°
